This demonstration page uses our WeatherBlox Daily Observations layout. Learn more.

40.92945, -100.16068

Hourly Observations for March 13, 2017

Temp ( °F °C ) Dew Point ( °F °C ) Humidity (%) Winds ( mph kmh ) Pressure ( in mb ) Visibility ( mi km ) Precip ( " mm )
12:15 am 00:15 Partly Cloudy 26 -3.2 16 -8.8 66 66 NNW 25 41 30.3 1026 10 16.0934 0 0
12:35 am 00:35 Clear 25 -3.9 15 -9.3 66 66 NNW 25 41 30.36 1028 10 16.0934 0 0
12:55 am 00:55 Partly Cloudy 23 -5 14 -10 68 68 NNW 20 31 30.36 1028 10 16.0934 0 0
1:15 am 01:15 Clear 22 -5.5 12 -11 66 66 NNW 25 41 30.36 1028 10 16.0934 0 0
1:35 am 01:35 Mostly Cloudy 21 -6 12 -11.1 68 68 NNW 25 41 30.39 1029 10 16.0934 0 0
1:55 am 01:55 Partly Cloudy 20 -6.7 11 -11.7 68 68 NNW 16 26 30.42 1030 10 16.0934 0 0
2:15 am 02:15 Partly Cloudy 19 -7 10 -12 68 68 NNW 21 33 30.42 1030 10 16.0934 0 0
2:35 am 02:35 Clear 19 -7.5 10 -12.5 68 68 NNW 22 35 30.45 1031 10 16.0934 0 0
2:55 am 02:55 Clear 19 -7.5 9 -12.8 66 66 NNW 25 41 30.45 1031 10 16.0934 0 0
3:15 am 03:15 Partly Cloudy 18 -7.8 10 -12.5 69 69 NNW 24 39 30.45 1031 10 16.0934 0 0
3:35 am 03:35 Clear 17 -8.3 8 -13.1 69 69 NNW 23 37 30.48 1032 10 16.0934 0 0
3:55 am 03:55 Clear 17 -8.5 8 -13.1 70 70 NNW 18 30 30.5 1033 10 16.0934 0 0
4:15 am 04:15 Partly Cloudy 16 -8.8 8 -13.1 71 71 NNW 26 43 30.5 1033 10 16.0934 0 0
4:35 am 04:35 Partly Cloudy 15 -9.2 8 -13.5 71 71 NNW 17 28 30.5 1033 10 16.0934 0 0
4:55 am 04:55 Clear 15 -9.2 8 -13.2 73 73 NNW 24 39 30.5 1033 10 16.0934 0 0
5:15 am 05:15 Clear 15 -9.3 8 -13.4 72 72 NNW 21 33 30.53 1034 10 16.0934 0 0
5:35 am 05:35 Clear 15 -9.5 8 -13.4 74 74 NNW 21 33 30.53 1034 10 16.0934 0 0
5:55 am 05:55 Mostly Cloudy 15 -9.3 8 -13.4 72 72 NNW 18 30 30.53 1034 10 16.0934 0 0
6:15 am 06:15 Mostly Cloudy 15 -9.4 8 -13.4 73 73 NNW 17 28 30.53 1034 10 16.0934 0 0
6:35 am 06:35 Mostly Cloudy 15 -9.5 8 -13.5 73 73 N 23 37 30.53 1034 10 16.0934 0 0
6:55 am 06:55 Mostly Cloudy 15 -9.5 8 -13.5 73 73 NNW 21 33 30.56 1035 10 16.0934 0 0
7:15 am 07:15 Partly Cloudy 15 -9.7 8 -13.5 74 74 NNW 17 28 30.53 1034 10 16.0934 0 0
7:35 am 07:35 Partly Cloudy 14 -9.8 8 -13.5 75 75 NNW 14 22 30.56 1035 10 16.0934 0 0
7:55 am 07:55 Mostly Cloudy 15 -9.6 8 -13.5 74 74 NNW 14 22 30.56 1035 10 16.0934 0 0
8:15 am 08:15 Partly Cloudy 15 -9.7 8 -13.5 74 74 NNW 15 24 30.56 1035 10 16.0934 0 0
8:35 am 08:35 Partly Cloudy 15 -9.4 8 -13.3 74 74 NNW 17 28 30.56 1035 10 16.0934 0 0
8:55 am 08:55 Sunny 15 -9.2 8 -13.4 72 72 NNW 15 24 30.56 1035 10 16.0934 0 0
9:15 am 09:15 Partly Cloudy 16 -8.7 8 -13.1 71 71 N 15 24 30.56 1035 10 16.0934 0 0
9:35 am 09:35 Mostly Cloudy 17 -8.5 8 -13.2 69 69 N 18 30 30.59 1036 10 16.0934 0 0
9:55 am 09:55 Partly Cloudy 17 -8.2 9 -13 69 69 NNW 17 28 30.59 1036 10 16.0934 0 0
10:15 am 10:15 Sunny 18 -7.7 8 -13.1 66 66 N 14 22 30.59 1036 10 16.0934 0 0
10:35 am 10:35 Sunny 20 -6.8 9 -12.8 63 63 N 13 20 30.56 1035 10 16.0934 0 0
10:55 am 10:55 Sunny 20 -6.6 9 -12.8 62 62 NNE 15 24 30.53 1034 10 16.0934 0 0
11:15 am 11:15 Sunny 21 -6.1 9 -13 59 59 NE 14 22 30.53 1034 10 16.0934 0 0
11:35 am 11:35 Sunny 21 -6 9 -13 58 58 N 10 17 30.53 1034 10 16.0934 0 0
11:55 am 11:55 Sunny 22 -5.5 9 -12.7 57 57 N 13 20 30.53 1034 10 16.0934 0 0
12:15 pm 12:15 Sunny 23 -5 9 -12.7 55 55 N 9 15 30.53 1034 10 16.0934 0 0
12:35 pm 12:35 Sunny 25 -4.1 10 -12.4 53 53 NE 7 11 30.48 1032 10 16.0934 0 0
12:55 pm 12:55 Sunny 25 -3.9 10 -12.3 52 52 N 7 11 30.48 1032 10 16.0934 0 0
1:15 pm 13:15 Sunny 27 -2.8 10 -12.2 49 49 NE 5 7 30.48 1032 10 16.0934 0 0
1:35 pm 13:35 Sunny 26 -3.3 10 -12.5 49 49 NE 6 9 30.48 1032 10 16.0934 0 0
1:55 pm 13:55 Sunny 27 -3 9 -12.6 48 48 NNE 7 11 30.45 1031 10 16.0934 0 0
2:15 pm 14:15 Sunny 27 -2.6 9 -12.6 47 47 Calm 30.42 1030 10 16.0934 0 0
2:35 pm 14:35 Sunny 28 -2.2 10 -12.4 46 46 WNW 3 6 30.42 1030 10 16.0934 0 0
2:55 pm 14:55 Sunny 29 -1.7 11 -11.7 47 47 N 8 13 30.42 1030 10 16.0934 0 0
3:15 pm 15:15 Sunny 29 -1.4 10 -12.5 43 43 NNW 7 11 30.39 1029 10 16.0934 0 0
3:35 pm 15:35 Sunny 30 -1.3 10 -12.4 43 43 NE 3 6 30.39 1029 10 16.0934 0 0
3:55 pm 15:55 Sunny 30 -0.9 10 -12.4 42 42 NW 6 9 30.39 1029 10 16.0934 0 0
4:15 pm 16:15 Sunny 31 -0.4 10 -12 42 42 NNE 3 6 30.39 1029 10 16.0934 0 0
4:35 pm 16:35 Sunny 31 -0.3 10 -12.2 41 41 N 3 6 30.39 1029 10 16.0934 0 0
4:55 pm 16:55 Sunny 32 -0.1 10 -12.2 40 40 WNW 6 9 30.39 1029 10 16.0934 0 0
5:15 pm 17:15 Sunny 32 0 10 -12 40 40 N 3 6 30.36 1028 10 16.0934 0 0
5:35 pm 17:35 Sunny 31 -0.3 10 -12.2 41 41 Calm 30.33 1027 10 16.0934 0 0
5:55 pm 17:55 Partly Cloudy 32 -0.2 10 -12 41 41 E 5 7 30.33 1027 10 16.0934 0 0
6:15 pm 18:15 Sunny 32 -0.2 10 -12.2 40 40 ENE 3 6 30.33 1027 10 16.0934 0 0
6:35 pm 18:35 Sunny 31 -0.3 11 -11.8 42 42 NE 6 9 30.33 1027 10 16.0934 0 0
6:55 pm 18:55 Sunny 31 -0.4 11 -11.8 42 42 E 3 6 30.36 1028 10 16.0934 0 0
7:15 pm 19:15 Sunny 31 -0.3 11 -11.5 43 43 E 7 11 30.33 1027 10 16.0934 0 0
7:35 pm 19:35 Sunny 31 -0.6 11 -11.6 44 44 E 6 9 30.36 1028 10 16.0934 0 0
7:55 pm 19:55 Partly Cloudy 30 -1.1 11 -11.5 46 46 E 7 11 30.36 1028 10 16.0934 0 0
8:15 pm 20:15 Mostly Cloudy 30 -1.2 11 -11.4 46 46 E 6 9 30.36 1028 10 16.0934 0 0
8:35 pm 20:35 Cloudy 29 -1.8 11 -11.6 48 48 E 12 19 30.36 1028 10 16.0934 0 0
8:55 pm 20:55 Cloudy 27 -2.6 11 -11.7 50 50 E 10 17 30.36 1028 10 16.0934 0 0
9:15 pm 21:15 Cloudy 27 -2.7 11 -11.6 51 51 E 10 17 30.36 1028 10 16.0934 0 0
9:35 pm 21:35 Cloudy 27 -2.8 11 -11.9 50 50 E 9 15 30.36 1028 10 16.0934 0 0
9:55 pm 21:55 Cloudy 27 -3 11 -11.9 51 51 E 12 19 30.36 1028 10 16.0934 0 0
10:15 pm 22:15 Cloudy 27 -3 11 -11.9 51 51 E 12 19 30.36 1028 10 16.0934 0 0
10:35 pm 22:35 Cloudy 26 -3.3 11 -11.5 53 53 E 12 19 30.39 1029 10 16.0934 0 0
10:55 pm 22:55 Cloudy 26 -3.6 12 -11.3 56 56 ESE 12 19 30.39 1029 10 16.0934 0 0
11:15 pm 23:15 Cloudy 25 -4 12 -11.2 58 58 ESE 12 19 30.39 1029 10 16.0934 0 0
11:35 pm 23:35 Cloudy 25 -4.1 11 -11.4 57 57 ESE 14 22 30.39 1029 10 16.0934 0 0
11:55 pm 23:55 Cloudy 25 -4.1 12 -11.2 58 58 E 13 20 30.39 1029 10 16.0934 0 0

Powered by AerisWeather